map of LIL home
LIL - Airport
Location
City:  Lille, Nord-Pas-de-Calais, France
Name:Lesquin
ICAO:LFQQ
IATA:LIL

Details
Type:Airport (Aerodrome, Airfield)
Use:Public/Civil, International (customs port of entry)
Latitude:5033'48"N (50.563333)
Longitude:305'13"E (3.086944)
Elevation:157 ft (48 m)
Variation:0.84E (WMM2015 magnetic declination)
0.14 annual change
Runways:2
Longest:9268 × 148 ft (2825 × 45 m)

Time
Time Zone:UTC+1 (DST+2)
Local Time:

Weather
METAR:LFQQ 152230Z AUTO 16015KT 2400 -RA BR OVC006/// ///TCU 00/M00 Q1009 BECMG 1200 BR OVC003
TAF:LFQQ 151700Z 1518/1624 14018G28KT 9999 RA BKN025
TEMPO 1518/1522 FZRA
BECMG 1521/1523 18015KT 4000 BR OVC007
BECMG 1600/1603 1500 BR OVC003
BECMG 1603/1605 0300 FG VV/// PROB40 1606/1613 4000 BR NSC

Related Locations
Nearby:
Farthest:CHT: 11963 mi / 19252 km
Waitangi [Tuuta], CIT, NZ

Find:

   beyond  
but within

Other Information
Maps:
NOTAMs:
Links:
Sources:

  
  • flag of France
  • flag of Nord-Pas-de-Calais
  

Sectional Chart

Flight Planning
at skyvector.com

Satellite Image

Google Maps Satellite view

 

Copyright © 2004-2018 Karl L. Swartz. All rights reserved.
The Great Circle Mapper name and logo are trademarks of the Great Circle Mapper.
All other trademarks mentioned herein belong to their respective owners.
Please see credits for attibutions and further copyright information.

  Follow gcmap on Facebook Follow gcmap on Twitter Follow gcmap on Google+ GCmap on LinkedIn

hCard Microformat

Geo Microformat